Location: Unspecified
(0.0000°N, 0.0000°E)
Time: 03:31:16
(UTC+00:00)

AO-7 - Visible Passes

Search period start: 19 August 2019 00:00
Search period end: 29 August 2019 00:00
Orbit: 1440 x 1458 km, 101.7° (Epoch: 16 August)

Date Brightness Start Highest point End Pass type
(mag) Time Alt. Az. Time Alt. Az. Time Alt. Az.
19 Aug ? 02:17:31 10° NE 02:21:06 23° ENE 02:21:06 23° ENE visible
19 Aug ? 04:09:38 10° NNW 04:16:01 34° WNW 04:16:01 34° WNW visible
20 Aug ? 03:08:57 10° NNE 03:14:57 53° NNE 03:14:57 53° NNE visible
20 Aug ? 05:07:31 10° WNW 05:09:30 11° WNW 05:09:52 11° WNW visible
21 Aug ? 02:10:55 10° NE 02:13:54 20° ENE 02:13:54 20° ENE visible
21 Aug ? 04:02:23 10° N 04:08:49 39° NW 04:08:49 39° NW visible
22 Aug ? 03:02:01 10° NNE 03:07:46 49° NE 03:07:46 49° NE visible
22 Aug ? 04:59:00 10° NW 05:02:33 13° WNW 05:02:42 13° WNW visible
23 Aug ? 02:04:24 10° ENE 02:06:43 17° ENE 02:06:43 17° ENE visible
23 Aug ? 03:55:12 10° N 04:01:38 43° NW 04:01:38 43° NW visible
24 Aug ? 02:55:07 10° NNE 03:00:36 44° NE 03:00:36 44° NE visible
24 Aug ? 04:51:04 10° NW 04:55:30 16° WNW 04:55:30 16° WNW visible
25 Aug ? 01:57:58 10° ENE 01:59:33 14° ENE 01:59:33 14° ENE visible
25 Aug ? 03:48:03 10° N 03:54:28 47° NW 03:54:28 47° NW visible
26 Aug ? 02:48:15 10° NNE 02:53:25 40° NE 02:53:25 40° NE visible
26 Aug ? 04:43:22 10° NNW 04:48:20 19° WNW 04:48:20 19° WNW visible
27 Aug ? 01:51:40 10° ENE 01:52:22 12° ENE 01:52:22 12° ENE visible
27 Aug ? 03:40:56 10° N 03:47:17 50° NNW 03:47:17 50° NNW visible
28 Aug ? 02:41:26 10° NNE 02:46:15 35° ENE 02:46:15 35° ENE visible
28 Aug ? 04:35:49 10° NNW 04:41:09 22° WNW 04:41:09 22° WNW visible
